DW5481 Weather Reports


time (UTC)temp
F
wind
direction
speed
knots
gust
knots
rain 1hr
in
rain 24hr
in
rain mn
in
humidity
%
barometer
mb
20260906195603 85 74 1.7 4.3 0.00 0.02 0.02 63 1015.7
20260906194603 84 75 1.7 4.3 0.00 0.02 0.02 64 1015.7
20260906194103 84 76 1.7 4.3 0.00 0.02 0.02 65 1015.7
20260906193603 84 75 0.9 2.6 0.00 0.02 0.02 63 1015.7
20260906193103 84 75 0.0 2.6 0.00 0.02 0.02 63 1015.7
20260906192603 85 75 0.9 6.1 0.00 0.02 0.02 63 1015.7
20260906192103 85 77 1.7 6.1 0.00 0.02 0.02 62 1015.7
20260906190603 85 82 0.9 7.0 0.00 0.02 0.02 63 1015.8
20260906185603 84 52 0.9 7.0 0.00 0.02 0.02 59 1016.1
20260906184603 84 55 1.7 2.6 0.00 0.02 0.02 61 1016.1
20260906184103 84 54 0.9 2.6 0.00 0.02 0.02 61 1016.0
20260906183603 85 53 1.7 5.2 0.00 0.02 0.02 60 1016.0
20260906182603 85 52 4.3 8.7 0.00 0.02 0.02 61 1016.1
20260906182103 85 103 1.7 4.3 0.00 0.02 0.02 59 1016.1
20260906181603 84 103 0.9 4.3 0.00 0.02 0.02 60 1016.1
20260906180603 83 116 0.9 2.6 0.00 0.02 0.02 61 1016.0
20260906180103 82 116 1.7 5.2 0.00 0.02 0.02 63 1016.0
20260906175603 82 116 0.9 4.3 0.00 0.02 0.02 65 1016.0
20260906174603 81 144 1.7 5.2 0.00 0.02 0.02 66 1016.2
20260906174104 80 150 0.9 4.3 0.00 0.02 0.02 64 1016.2
20260906173603 80 155 0.0 2.6 0.00 0.02 0.02 65 1016.2
20260906173103 79 155 2.6 5.2 0.00 0.02 0.02 66 1016.2
20260906172604 79 155 2.6 5.2 0.00 0.02 0.02 65 1016.2
20260906172103 79 154 2.6 5.2 0.00 0.02 0.02 66 1015.4
20260906171604 79 154 2.6 10.4 0.00 0.02 0.02 66 1015.4
20260906171103 78 156 2.6 8.7 0.00 0.02 0.02 66 1015.4
20260906170603 78 148 2.6 5.2 0.00 0.02 0.02 66 1015.4
20260906170103 78 148 0.9 6.1 0.00 0.02 0.02 67 1015.4
20260906165603 78 152 1.7 5.2 0.00 0.02 0.02 67 1015.4
20260906165103 78 152 0.9 5.2 0.00 0.02 0.02 67 1015.5
20260906164103 78 152 2.6 6.1 0.00 0.02 0.02 65 1015.4
20260906163603 78 144 2.6 11.3 0.00 0.02 0.02 65 1015.4
20260906163103 77 143 5.2 11.3 0.00 0.02 0.02 64 1015.4
20260906162103 78 138 4.3 12.2 0.00 0.02 0.02 64 1015.8
20260906161603 78 145 8.7 15.6 0.00 0.02 0.02 62 1015.8
20260906160604 77 158 10.4 17.4 0.01 0.02 0.02 62 1015.7
20260906160104 76 147 5.2 10.4 0.01 0.02 0.02 64 1015.8
20260906155603 76 325 0.9 4.3 0.02 0.02 0.02 65 1015.1
20260906155103 76 329 2.6 4.3 0.02 0.02 0.02 61 1015.1
20260906154603 76 266 3.5 7.0 0.02 0.02 0.02 65 1015.1
20260906154104 76 160 7.0 13.9 0.02 0.02 0.02 63 1015.1
20260906153603 76 150 12.2 20.9 0.02 0.02 0.02 65 1015.1
20260906153103 73 153 13.0 20.0 0.02 0.02 0.02 71 1014.6
20260906152604 73 129 7.0 10.4 0.02 0.02 0.02 73 1015.9
20260906152103 73 145 5.2 10.4 0.02 0.02 0.02 73 1015.9
20260906151603 73 169 6.1 10.4 0.02 0.02 0.02 73 1016.9
20260906151103 73 168 8.7 15.6 0.01 0.01 0.01 76 1016.9
20260906150604 72 155 10.4 14.8 0.01 0.01 0.01 78 1016.9
20260906145603 71 163 5.2 7.0 0.00 0.00 0.00 81 1016.9
20260906144603 71 216 2.6 7.8 0.00 0.00 0.00 81 1016.9
20260906143603 71 243 7.0 10.4 0.00 0.00 0.00 82 1017.2
20260906143103 71 212 5.2 12.2 0.00 0.00 0.00 82 1017.6
20260906142603 71 233 6.1 13.0 0.00 0.00 0.00 81 1017.6
20260906142103 71 238 5.2 8.7 0.00 0.00 0.00 82 1017.6
20260906141603 71 233 4.3 10.4 0.00 0.00 0.00 83 1017.6
20260906141103 71 246 4.3 7.8 0.00 0.00 0.00 83 1017.6
20260906140603 71 245 6.1 8.7 0.00 0.00 0.00 83 1017.6
20260906140103 71 248 2.6 6.1 0.00 0.00 0.00 83 1017.8
20260906135103 71 255 2.6 4.3 0.00 0.00 0.00 83 1017.8
20260906134604 71 255 3.5 7.0 0.00 0.00 0.00 83 1017.8
20260906134103 71 262 4.3 5.2 0.00 0.00 0.00 83 1017.6
20260906133603 71 261 5.2 7.0 0.00 0.00 0.00 83 1017.5
20260906132603 71 263 5.2 7.0 0.00 0.00 0.00 83 1017.4
20260906131603 71 263 7.0 10.4 0.00 0.00 0.00 83 1017.5
20260906130103 72 285 6.1 10.4 0.00 0.00 0.00 81 1017.4
20260906125603 72 282 7.0 7.8 0.00 0.00 0.00 81 1017.6
20260906125103 72 285 5.2 8.7 0.00 0.00 0.00 81 1017.6
20260906124604 72 282 5.2 10.4 0.00 0.00 0.00 80 1017.6
20260906124103 72 262 7.8 10.4 0.00 0.00 0.00 80 1017.6
20260906123603 73 268 7.0 10.4 0.00 0.00 0.00 80 1017.6
20260906123103 73 279 7.8 10.4 0.00 0.00 0.00 79 1017.6
20260906122104 73 279 10.4 14.8 0.00 0.00 0.00 78 1017.7
20260906121603 73 272 5.2 8.7 0.00 0.00 0.00 79 1017.7
20260906121103 74 281 7.8 13.9 0.00 0.00 0.00 78 1017.7
20260906115604 74 261 8.7 13.0 0.00 0.00 0.00 78 1017.5
20260906115103 75 274 8.7 12.2 0.00 0.00 0.00 78 1017.5
20260906114603 75 263 8.7 13.0 0.00 0.00 0.00 77 1017.3
20260906114104 76 252 6.1 7.8 0.00 0.00 0.00 76 1017.0
20260906113604 76 271 5.2 7.0 0.00 0.00 0.00 76 1016.9
20260906113104 76 275 5.2 7.8 0.00 0.00 0.00 75 1016.7
20260906112104 76 268 6.1 7.8 0.00 0.00 0.00 74 1016.7
20260906111604 76 260 6.1 10.4 0.00 0.00 0.00 74 1016.4
20260906111103 76 258 5.2 7.8 0.00 0.00 0.00 74 1016.3
20260906110604 76 237 8.7 12.2 0.00 0.00 0.00 75 1016.3
20260906105603 75 262 11.3 15.6 0.00 0.00 0.00 77 1015.1
20260906104604 75 145 0.9 2.6 0.00 0.00 0.00 76 1015.1
20260906104103 75 145 0.9 1.7 0.00 0.00 0.00 76 1015.1
20260906103603 75 145 0.9 2.6 0.00 0.00 0.00 76 1015.1
20260906103104 75 145 0.9 2.6 0.00 0.00 0.00 75 1015.0
20260906102603 75 145 0.0 0.9 0.00 0.00 0.00 75 1014.9
20260906102103 75 145 0.9 2.6 0.00 0.00 0.00 75 1014.8
20260906101603 75 145 0.9 1.7 0.00 0.00 0.00 75 1015.0
20260906101103 75 145 0.0 1.7 0.00 0.00 0.00 76 1015.0
20260906100604 75 145 0.9 1.7 0.00 0.00 0.00 76 1015.0
20260906100104 75 145 0.9 1.7 0.00 0.00 0.00 76 1015.0
20260906095104 75 145 0.9 2.6 0.00 0.00 0.00 75 1015.0
20260906094604 75 145 0.9 2.6 0.00 0.00 0.00 75 1015.0
20260906094103 75 145 0.9 2.6 0.00 0.00 0.00 75 1015.0
20260906093604 75 145 0.9 5.2 0.00 0.00 0.00 75 1014.9
20260906093104 75 145 0.9 2.6 0.00 0.00 0.00 75 1014.9
20260906092104 75 145 0.0 1.7 0.00 0.00 0.00 76 1014.6
20260906091604 75 145 0.9 1.7 0.00 0.00 0.00 76 1014.6
20260906091104 75 145 0.0 5.2 0.00 0.00 0.00 76 1014.7
20260906090606 75 145 1.7 4.3 0.00 0.00 0.00 77 1014.7
20260906090105 75 145 0.9 2.6 0.00 0.00 0.00 76 1014.7
20260906085604 75 145 0.0 1.7 0.00 0.00 0.00 76 1014.6
20260906085103 75 145 0.0 1.7 0.00 0.00 0.00 76 1014.6
20260906084604 75 145 0.0 1.7 0.00 0.00 0.00 76 1014.6
20260906084104 75 145 0.9 1.7 0.00 0.00 0.00 76 1014.7
20260906083604 76 145 0.9 4.3 0.00 0.00 0.00 76 1014.7
20260906083103 76 145 0.9 2.6 0.00 0.00 0.00 76 1014.7
20260906082604 76 145 0.9 2.6 0.00 0.00 0.00 75 1014.7
20260906082104 76 145 0.9 4.3 0.00 0.00 0.00 75 1014.7
20260906081603 76 147 0.9 4.3 0.00 0.00 0.00 75 1014.7
20260906081104 76 147 2.6 5.2 0.00 0.00 0.00 75 1014.7
20260906080603 76 148 2.6 7.8 0.00 0.00 0.00 75 1014.7
20260906080104 76 145 2.6 7.0 0.00 0.00 0.00 75 1014.7
20260906075603 76 146 2.6 6.1 0.00 0.00 0.00 75 1014.8
20260906075103 76 146 2.6 6.1 0.00 0.00 0.00 75 1014.8
20260906074604 76 146 2.6 7.0 0.00 0.00 0.00 75 1014.8
20260906074104 77 150 2.6 5.2 0.00 0.00 0.00 75 1014.8
20260906073603 77 152 1.7 5.2 0.00 0.00 0.00 75 1014.8
20260906073103 77 155 3.5 6.1 0.00 0.00 0.00 74 1014.8
20260906072604 77 144 2.6 6.1 0.00 0.00 0.00 74 1014.8
20260906072104 77 143 2.6 6.1 0.00 0.00 0.00 73 1014.7
20260906071603 78 144 3.5 7.0 0.00 0.00 0.00 73 1014.7
20260906071104 78 150 2.6 6.1 0.00 0.00 0.00 72 1014.7
20260906070604 78 140 2.6 6.1 0.00 0.00 0.00 72 1014.7
20260906070104 79 142 3.5 7.0 0.00 0.00 0.00 71 1014.7
20260906064603 79 134 2.6 5.2 0.00 0.00 0.00 69 1014.5
20260906064103 79 135 1.7 5.2 0.00 0.00 0.00 69 1014.5
20260906063603 79 135 1.7 7.0 0.00 0.00 0.00 69 1014.5
20260906063104 80 143 1.7 4.3 0.00 0.00 0.00 69 1014.5
20260906062604 80 146 1.7 5.2 0.00 0.00 0.00 68 1014.5
20260906062104 80 145 1.7 4.3 0.00 0.00 0.00 68 1014.6
20260906061604 80 145 1.7 6.1 0.00 0.00 0.00 69 1014.6
20260906061104 80 130 2.6 7.0 0.00 0.00 0.00 69 1014.7
20260906060604 79 131 1.7 5.2 0.00 0.00 0.00 69 1014.7
20260906060104 79 131 2.6 5.2 0.00 0.00 0.00 70 1014.8
20260906055604 79 132 1.7 5.2 0.00 0.00 0.00 70 1014.8
20260906054604 78 128 1.7 5.2 0.00 0.00 0.00 72 1014.8
20260906054103 78 128 1.7 2.6 0.00 0.00 0.00 73 1014.8
20260906053603 78 127 0.9 1.7 0.00 0.00 0.00 74 1014.8
20260906053103 78 127 0.0 0.9 0.00 0.00 0.00 74 1015.1
20260906052604 78 127 0.0 1.7 0.00 0.00 0.00 74 1015.1
20260906052103 79 127 0.0 0.9 0.00 0.00 0.00 74 1015.1
20260906051603 79 127 0.0 0.9 0.00 0.00 0.00 74 1015.1
20260906051103 79 127 0.0 1.7 0.00 0.00 0.00 73 1015.1
20260906045603 80 127 1.7 2.6 0.00 0.00 0.00 71 1014.8
20260906045104 81 128 1.7 2.6 0.00 0.00 0.00 70 1014.8
20260906044603 81 128 1.7 2.6 0.00 0.00 0.00 69 1014.9
20260906044103 81 128 0.9 1.7 0.00 0.00 0.00 69 1014.9
20260906043103 80 128 0.0 0.9 0.00 0.00 0.00 70 1014.9
20260906042603 81 128 0.9 1.7 0.00 0.00 0.00 70 1015.0
20260906042104 81 128 0.9 1.7 0.00 0.00 0.00 70 1014.9
20260906041603 81 128 0.0 0.9 0.00 0.00 0.00 70 1014.9
20260906041103 81 128 0.0 1.7 0.00 0.00 0.00 70 1014.9
20260906040603 81 128 1.7 2.6 0.00 0.00 0.00 70 1014.9
20260906035604 81 128 0.0 1.7 0.00 0.00 0.00 70 1014.5
20260906034104 81 128 0.9 1.7 0.00 0.00 0.00 71 1014.6
20260906033604 82 128 0.9 6.1 0.00 0.00 0.00 70 1014.6
20260906033104 82 126 0.9 2.6 0.00 0.00 0.00 70 1014.6
20260906032604 82 126 0.9 2.6 0.00 0.00 0.00 69 1014.4
20260906032104 82 126 0.0 2.6 0.00 0.00 0.00 69 1014.4
20260906031604 82 126 2.6 5.2 0.00 0.00 0.00 69 1014.4
20260906031104 82 124 3.5 6.1 0.00 0.00 0.00 69 1014.4
20260906030604 82 110 2.6 5.2 0.00 0.00 0.00 69 1014.2
20260906030104 82 98 0.9 1.7 0.00 0.00 0.00 69 1014.3
20260906024604 83 98 0.9 1.7 0.00 0.00 0.00 69 1014.1
20260906024104 83 98 0.0 0.9 0.00 0.00 0.00 69 1014.2
20260906023604 83 98 0.0 0.9 0.00 0.00 0.00 68 1013.8
20260906023103 83 98 0.0 0.0 0.00 0.00 0.00 68 1013.8
20260906022603 83 98 0.0 1.7 0.00 0.00 0.00 68 1013.8
20260906021604 83 98 0.0 1.7 0.00 0.00 0.00 69 1013.5
20260906021104 83 98 0.0 0.9 0.00 0.00 0.00 69 1013.5
20260906020604 83 98 0.0 0.9 0.00 0.00 0.00 69 1013.5
20260906020104 83 98 0.0 0.9 0.00 0.00 0.00 69 1013.4
20260906015604 83 98 0.0 0.9 0.00 0.00 0.00 70 1013.4
20260906014604 84 98 0.0 0.0 0.00 0.00 0.00 70 1013.3
20260906014104 84 98 0.0 0.9 0.00 0.00 0.00 70 1013.3
20260906013604 84 98 0.0 2.6 0.00 0.00 0.00 69 1013.4
20260906013104 85 98 0.0 2.6 0.00 0.00 0.00 69 1013.2
20260906012604 85 98 0.9 2.6 0.00 0.00 0.00 68 1013.2
20260906012104 85 98 0.9 0.9 0.00 0.00 0.00 68 1013.1
20260906011604 86 98 0.9 2.6 0.00 0.00 0.00 67 1013.0
20260906011103 86 98 0.9 1.7 0.00 0.00 0.00 66 1013.0
20260906010603 87 98 0.0 1.7 0.00 0.00 0.00 65 1012.9
20260906010104 87 98 0.0 1.7 0.00 0.00 0.00 65 1012.9
20260906005604 88 98 0.9 1.7 0.00 0.00 0.00 64 1013.1
20260906004604 89 98 0.9 1.7 0.00 0.00 0.00 62 1013.1
20260906004102 89 98 0.0 1.7 0.00 0.00 0.00 61 1013.1
20260906003602 90 98 0.9 1.7 0.00 0.00 0.00 60 1012.8
20260906003102 91 98 0.0 1.7 0.00 0.00 0.00 58 1012.8
20260906002602 91 98 0.9 1.7 0.00 0.00 0.00 57 1012.8
20260906002102 92 98 0.0 1.7 0.00 0.00 0.00 56 1012.8
20260906001602 92 98 0.9 1.7 0.00 0.00 0.00 55 1012.8
20260906001102 93 98 0.0 2.6 0.00 0.00 0.00 54 1012.8
20260906000602 93 98 1.7 5.2 0.00 0.00 0.00 54 1012.7
20260905235602 93 98 1.7 5.2 0.00 0.00 0.00 54 1012.7
20260905235103 93 109 1.7 5.2 0.00 0.00 0.00 54 1012.7
20260905234603 93 116 1.7 4.3 0.00 0.00 0.00 54 1012.7
20260905233102 94 98 1.7 2.6 0.00 0.00 0.00 52 1012.8
20260905232602 94 119 0.9 2.6 0.00 0.00 0.00 52 1012.8
20260905232102 94 120 1.7 2.6 0.00 0.00 0.00 52 1012.7
20260905231102 94 133 0.9 6.1 0.00 0.00 0.00 51 1012.6
20260905230602 94 139 1.7 5.2 0.00 0.00 0.00 52 1012.6
20260905225102 93 158 0.9 6.1 0.00 0.00 0.00 52 1012.7
20260905224602 94 124 1.7 4.3 0.00 0.00 0.00 52 1012.7
20260905224102 94 123 2.6 6.1 0.00 0.00 0.00 51 1012.8
20260905223602 94 86 2.6 4.3 0.00 0.00 0.00 51 1012.8
20260905223102 94 84 2.6 7.0 0.00 0.00 0.00 52 1012.9
20260905222602 94 117 2.6 10.4 0.00 0.00 0.00 53 1012.9
20260905222102 93 133 0.9 5.2 0.00 0.00 0.00 54 1012.9
20260905221602 93 124 1.7 7.0 0.00 0.00 0.00 53 1013.1
20260905220603 93 144 3.5 5.2 0.00 0.00 0.00 53 1013.3
20260905215602 93 117 2.6 7.0 0.00 0.00 0.00 53 1013.3
20260905215103 93 126 4.3 7.0 0.00 0.00 0.00 53 1013.3
20260905214602 93 71 2.6 7.8 0.00 0.00 0.00 54 1013.3
20260905214102 93 82 1.7 7.0 0.00 0.00 0.00 55 1013.3
20260905213602 93 138 1.7 7.0 0.00 0.00 0.00 55 1013.5
20260905213103 93 123 1.7 6.1 0.00 0.00 0.00 55 1013.5
20260905212602 93 139 3.5 6.1 0.00 0.00 0.00 56 1013.6
20260905212102 93 79 2.6 7.8 0.00 0.00 0.00 55 1013.7
20260905210602 92 60 1.7 7.0 0.00 0.00 0.00 55 1013.9
20260905205602 92 78 3.5 7.8 0.00 0.00 0.00 55 1014.1
20260905205102 92 104 2.6 7.8 0.00 0.00 0.00 54 1014.2
20260905204602 91 84 4.3 7.8 0.00 0.00 0.00 55 1014.3
20260905204102 91 68 2.6 7.8 0.00 0.00 0.00 58 1014.4
20260905203602 91 63 7.0 12.2 0.00 0.00 0.00 59 1014.6
20260905203102 91 58 5.2 10.4 0.00 0.00 0.00 60 1014.6
20260905202602 91 51 3.5 8.7 0.00 0.00 0.00 60 1014.6
20260905201602 90 55 4.3 7.8 0.00 0.00 0.00 61 1014.7